User: anonymous   Login
Location: Unspecified
(0.0000°N, 0.0000°E)
Time: 00:53:12
(UTC+00:00)
Language:

STARLINK-32822 - Orbit

View from above orbital plane
View from above orbital plane
View from above satellite
View from above satellite

Ground track
Ground track

The orbit is defined by the following mean orbital elements,

1 62868U          26145.26565332 +.00000000 +00000-0 -72097-4 0 00003
2 62868  53.1573 133.9650 0001217  61.1720 298.9403 15.30199820    04
Epoch (UTC): 25 May 2026 06:22:32
Eccentricity: 0.0001217
inclination: 53.1573°
perigee height: 474 km
apogee height: 476 km
right ascension of ascending node: 133.9650°
argument of perigee: 61.1720°
revolutions per day: 15.30199820
mean anomaly at epoch: 298.9403°

The dashed part of the orbit path shows where the satellite is in the earth's shadow,  

DLR